www.pogodaiklimat.ru

Погода и климат >> Архив погоды >> Финляндия >> Пюхя


ПОГОДА в Пюхе

  • Прогноз погоды в Пюхе
  • Монитор погоды в Пюхе

АРХИВ ПОГОДЫ в Пюхе

Время (UTC), дата Ветер
(напр.,м/с)
 
Видим.   Явления Облачность Т
(С)
Тd
(С)
f
(%)
Тe
(С)
Тes
(С)
Комфортность P
(гПа)
Po
(гПа)
Тmin
(С)
Tmax
(С)
R
(мм)
R24
(мм)
S
(см)
04 15.08 ЮВ 1-6
{6}
н/о н/о +10.1 +10.1 100 +9 +9 1001.2 944.1
05 15.08 СВ 5-7
{7}
н/о н/о +10.4 +10.4 100 +7 +7 1001.1 944.0
06 15.08 СВ 3-6
{7}
н/о н/о +10.4 +10.4 100 +8 +8 1001.1 944.0 +10.1 +12.4
07 15.08 СВ 4 н/о н/о +10.6 +10.6 100 +8 +8 1001.0 944.0
08 15.08 СВ 5-7
{8}
н/о н/о +10.8 +10.8 100 +8 +8 1000.8 943.8
09 15.08 С 6-7
{8}
н/о н/о +11.5 +11.5 100 +8 +8 1000.5 943.7
10 15.08 С 7 н/о н/о +11.9 +11.9 100 +9 +9 1000.5 943.7
11 15.08 С 8-10
{10}
н/о н/о +12.7 +12.6 99 +10 +10 1000.2 943.6
12 15.08 С 8-10
{10}
н/о н/о +14.2 +13.4 95 +12 +12 999.9 943.6
13 15.08 СВ 2 н/о н/о +11.1 +11.1 100 +10 +10 1000.9 944.0
14 15.08 СВ 6-8
{8}
н/о н/о +11.1 +11.1 100 +8 +8 1001.1 944.1
15 15.08 С 6-8
{9}
н/о н/о +12.2 +12.2 100 +9 +9 1001.0 944.3
16 15.08 С 6 н/о н/о +11.9 +11.9 100 +9 +9 1001.5 944.7
17 15.08 СВ 3-10
{10}
н/о н/о +11.0 +11.0 100 +9 +9 1001.8 944.8
18 15.08 СВ 4-7
{10}
н/о н/о +10.6 +10.6 100 +8 +8 1002.5 945.3 +10.4 +14.3
19 15.08 СВ 8-9
{9}
н/о н/о +10.7 +10.6 99 +7 +7 1002.6 945.5
20 15.08 С 8-9
{10}
н/о н/о +10.5 +10.5 100 +6 +6 1002.9 945.8
21 15.08 С 7-8
{8}
н/о н/о +10.1 +10.1 100 +6 +6 1003.5 946.2
22 15.08 С 7 н/о н/о +9.9 +9.9 100 +6 +6 1003.8 946.4
23 15.08 С 7 н/о н/о +9.6 +9.6 100 +5 +5 1004.3 946.9
00 16.08 С 5-7
{9}
н/о н/о +9.4 +9.4 100 +6 +6 1004.9 947.4
01 16.08 С 6 н/о н/о +9.1 +9.1 100 +5 +5 1005.2 947.6
02 16.08 С 6-6
{9}
н/о н/о +8.8 +8.8 100 +5 +5 1005.8 948.1
03 16.08 С 6-8
{9}
н/о н/о +8.7 +8.7 100 +5 +5 1006.3 948.6
04 16.08 С 5 н/о н/о +8.5 +8.5 100 +5 +5 1006.7 949.0
05 16.08 С 5-5
{8}
н/о н/о +8.5 +8.5 100 +5 +5 1007.2 949.4
06 16.08 С 4-6
{6}
н/о н/о +8.4 +8.4 100 +5 +5 1007.6 949.7 +8.3 +11.0
07 16.08 СЗ 3 н/о н/о +8.3 +8.3 100 +5 +5 1007.9 950.0
08 16.08 С 2 н/о н/о +8.7 +8.7 100 +7 +7 1008.2 950.4
09 16.08 штиль 0
{6}
н/о н/о +8.5 +8.5 100 +7 +7 1008.8 950.9
10 16.08 Ю 1-2
{3}
н/о н/о +8.8 +8.8 100 +8 +8 1009.2 951.3
11 16.08 Ю 2 н/о н/о +8.8 +8.8 100 +7 +7 1009.6 951.8
12 16.08 Ю 2-4
{5}
н/о н/о +9.5 +9.3 99 +8 +8 1009.9 952.1
13 16.08 Ю 3 н/о н/о +9.7 +9.0 95 +7 +7 1010.1 952.3
14 16.08 В 2 н/о н/о +9.9 +9.7 99 +8 +8 1009.9 952.3
15 16.08 ЮВ 3-4
{4}
н/о н/о +10.4 +9.9 97 +8 +8 1009.8 952.2
16 16.08 ЮВ 3 н/о н/о +10.5 +9.8 95 +8 +8 1009.9 952.4
17 16.08 ЮВ 4-5
{5}
н/о н/о +10.7 +9.8 94 +8 +8 1009.8 952.3
18 16.08 ЮВ 7 н/о н/о +10.6 +9.6 94 +7 +7 1009.8 952.3 +8.3 +10.8
19 16.08 ЮВ 8 н/о н/о +10.3 +9.7 96 +6 +6 1009.9 952.3
20 16.08 ЮВ 8-10
{10}
н/о н/о +10.5 +10.1 97 +6 +6 1009.9 952.4
21 16.08 Ю 9-10
{11}
н/о н/о +10.4 +10.4 100 +6 +6 1009.8 952.3
22 16.08 Ю 11 н/о н/о +10.2 +10.2 100 +5 +5 1009.9 952.3
23 16.08 Ю 12 н/о н/о +9.5 +9.5 100 +4 +4 1010.0 952.2
00 17.08 Ю 12-13
{14}
н/о н/о +8.9 +8.9 100 +3 +3 1010.1 952.2
01 17.08 Ю 14 н/о н/о +8.9 +8.9 100 +3 +3 1009.8 952.0
02 17.08 Ю 13-14
{15}
н/о н/о +8.6 +8.6 100 +3 +3 1009.9 952.0
03 17.08 Ю 13-15
{15}
н/о н/о +8.8 +8.8 100 +3 +3 1009.8 951.9
04 17.08 Ю 13 н/о н/о +9.2 +9.2 100 +4 +4 1009.9 952.1
05 17.08 Ю 11 н/о н/о +10.2 +9.9 98 +5 +5 1010.0 952.4
06 17.08 Ю 10-12
{13}
н/о н/о +11.0 +10.2 95 +7 +7 1009.9 952.4 +8.4 +11.0
07 17.08 Ю 10-13
{13}
н/о н/о +11.3 +10.0 92 +7 +7 1009.9 952.5
08 17.08 Ю 10 н/о н/о +12.5 +9.1 80 +9 +9 1009.6 952.5
09 17.08 Ю 9-12
{14}
н/о н/о +13.5 +10.0 79 +11 +11 1009.4 952.5
10 17.08 Ю 10 н/о н/о +14.0 +10.4 79 +11 +11 1009.3 952.4
11 17.08 Ю 10 н/о н/о +13.6 +11.1 85 +11 +11 1009.7 952.7
12 17.08 Ю 9-11
{12}
н/о н/о +14.1 +11.7 85 +11 +11 1009.8 952.9
13 17.08 Ю 8 н/о н/о +14.1 +11.8 86 +12 +12 1009.9 953.0
14 17.08 Ю 8 н/о н/о +14.1 +12.1 88 +12 +12 1009.7 952.8
15 17.08 Ю 7-8
{11}
н/о н/о +12.6 +12.6 100 +10 +10 1009.9 952.8
16 17.08 Ю 9 н/о н/о +12.7 +12.7 100 +9 +9 1010.0 952.8
17 17.08 Ю 9-10
{12}
н/о н/о +12.8 +12.8 100 +9 +9 1010.1 952.9
18 17.08 Ю 9-10
{12}
н/о н/о +12.8 +12.8 100 +9 +9 1010.1 953.0 +11.0 +14.2
19 17.08 Ю 9 н/о н/о +12.8 +12.8 100 +9 +9 1010.2 953.1
20 17.08 ЮВ 10 н/о н/о +12.9 +12.9 100 +9 +9 1009.9 952.8
21 17.08 ЮВ 12-13
{13}
н/о н/о +12.6 +12.6 100 +9 +9 1009.4 952.3
22 17.08 Ю 13 н/о н/о +12.6 +12.6 100 +8 +8 1009.2 952.1
23 17.08 Ю 12-14
{15}
н/о н/о +12.5 +12.5 100 +8 +8 1009.5 952.3
00 18.08 Ю 12-14
{16}
н/о н/о +12.6 +12.6 100 +9 +9 1009.6 952.5
01 18.08 Ю 11 н/о н/о +12.4 +12.4 100 +9 +9 1009.9 952.7
02 18.08 Ю 11-12
{13}
н/о н/о +12.2 +12.2 100 +8 +8 1009.8 952.6
03 18.08 ЮВ 11-13
{14}
н/о н/о +12.3 +12.3 100 +8 +8 1009.7 952.5
04 18.08 Ю 11-14
{14}
н/о н/о +12.0 +12.0 100 +8 +8 1009.8 952.6
05 18.08 Ю 11 н/о н/о +12.1 +12.1 100 +8 +8 1010.0 952.7
06 18.08 Ю 12-15
{15}
н/о н/о +12.5 +12.5 100 +8 +8 1010.1 952.9 +12.0 +13.0
07 18.08 Ю 11 н/о н/о +13.2 +12.6 96 +10 +10 1010.1 953.0
08 18.08 Ю 10-15
{15}
н/о н/о +14.6 +12.1 85 +12 +12 1010.1 953.3
09 18.08 ЮВ 10-15
{15}
н/о н/о +16.2 +11.9 76 +14 +14 1009.8 953.3
10 18.08 ЮВ 14-16
{18}
н/о н/о +16.8 +10.7 67 +15 +15 1009.4 953.1
11 18.08 ЮВ 12 н/о н/о +17.1 +11.6 70 +15 +15 1009.2 953.0
12 18.08 ЮВ 17-20
{20}
н/о н/о +15.7 +12.0 79 +13 +13 1009.3 952.8
13 18.08 Ю 15-16
{20}
н/о н/о +14.3 +12.7 90 +11 +11 1010.0 953.2
14 18.08 Ю 11-13
{15}
н/о н/о +14.2 +12.6 90 +11 +11 1010.1 953.3
15 18.08 Ю 12-14
{15}
н/о н/о +13.1 +13.1 100 +9 +9 1010.4 953.3
16 18.08 Ю 11 н/о н/о +13.0 +12.8 99 +9 +9 1010.0 952.9
17 18.08 Ю 10 н/о н/о +12.9 +12.5 97 +9 +9 1010.5 953.4
18 18.08 Ю 11-14
{14}
н/о н/о +12.7 +12.7 100 +9 +9 1010.7 953.5 +12.5 +17.5
19 18.08 Ю 10-11
{12}
н/о н/о +12.5 +12.5 100 +9 +9 1010.7 953.5
20 18.08 ЮВ 10 н/о н/о +12.3 +12.3 100 +9 +9 1010.6 953.4
21 18.08 ЮВ 12-14
{14}
н/о н/о +12.0 +12.0 100 +8 +8 1010.4 953.1
22 18.08 ЮВ 11 н/о н/о +11.9 +11.9 100 +8 +8 1010.4 953.1
23 18.08 ЮВ 11-12
{12}
н/о н/о +11.7 +11.7 100 +8 +8 1010.4 953.0
00 19.08 ЮВ 10-11
{12}
н/о н/о +11.5 +11.5 100 +7 +7 1010.0 952.7
01 19.08 ЮВ 11-13
{13}
н/о н/о +11.2 +11.2 100 +7 +7 1009.8 952.4
02 19.08 ЮВ 13 н/о н/о +10.7 +9.1 90 +6 +6 1009.5 952.0
03 19.08 ЮВ 14-14
{14}
н/о н/о +10.2 +8.6 90 +5 +5 1009.1 951.5
04 19.08 ЮВ 14 н/о н/о +9.9 +8.5 91 +5 +5 1008.5 950.9
05 19.08 ЮВ 14 н/о н/о +10.7 +8.6 87 +6 +6 1008.0 950.6
06 19.08 ЮВ 13-16
{18}
н/о н/о +13.0 +8.8 76 +9 +9 1007.0 950.1 +9.8 +13.0
07 19.08 ЮВ 14 н/о н/о +14.6 +8.8 68 +12 +12 1006.3 949.8
08 19.08 ЮВ 15-18
{19}
н/о н/о +14.8 +9.0 68 +12 +12 1005.8 949.3
09 19.08 ЮВ 16-20
{20}
н/о н/о +15.2 +9.0 66 +12 +12 1004.8 948.4
10 19.08 ЮВ 16-19
{21}
н/о н/о +15.2 +8.8 66 +12 +12 1004.4 948.0
11 19.08 ЮВ 17 н/о н/о +14.6 +9.4 71 +11 +11 1003.8 947.4
12 19.08 ЮВ 18-21
{22}
н/о н/о +13.1 +10.5 84 +9 +9 1003.4 946.7
13 19.08 ЮВ 20 н/о н/о +12.1 +11.2 94 +7 +7 1002.9 946.1
14 19.08 ЮВ 20 н/о н/о +11.5 +11.5 100 +6 +6 1002.2 945.2
15 19.08 ЮВ 21-25
{26}
н/о н/о +11.7 +11.7 100 +6 +6 1001.6 944.8
16 19.08 ЮВ 19 н/о н/о +11.8 +11.8 100 +7 +7 1001.7 944.9
17 19.08 ЮВ 15 н/о н/о +12.1 +12.1 100 +7 +7 1002.0 945.2
18 19.08 ЮВ 16-19
{21}
н/о н/о +12.4 +12.4 100 +8 +8 1001.9 945.2 +11.5 +15.6
19 19.08 Ю 15 н/о н/о +11.9 +11.9 100 +7 +7 1002.7 945.8
20 19.08 Ю 13-15
{17}
н/о н/о +11.5 +11.5 100 +7 +7 1003.6 946.6
21 19.08 Ю 13-15
{16}
н/о н/о +11.1 +11.1 100 +6 +6 1004.0 946.9
22 19.08 Ю 12 н/о н/о +11.1 +11.1 100 +6 +6 1004.4 947.3
23 19.08 Ю 10 н/о н/о +10.8 +10.8 100 +6 +6 1004.3 947.1
00 20.08 Ю 11-14
{14}
н/о н/о +10.3 +10.3 100 +6 +6 1004.7 947.4
01 20.08 Ю 11-14
{14}
н/о н/о +10.3 +10.3 100 +6 +6 1004.9 947.6
02 20.08 Ю 10 н/о н/о +10.4 +10.4 100 +6 +6 1005.0 947.8
03 20.08 Ю 10-12
{14}
н/о н/о +10.5 +10.5 100 +6 +6 1005.3 948.0
04 20.08 Ю 10 н/о н/о +10.5 +10.5 100 +6 +6 1005.7 948.4
05 20.08 Ю 10-12
{13}
н/о н/о +10.4 +10.4 100 +6 +6 1006.1 948.8
06 20.08 Ю 9-12
{14}
н/о н/о +10.3 +10.3 100 +6 +6 1006.7 949.3 +10.2 +12.4
07 20.08 Ю 10 н/о н/о +10.2 +10.2 100 +6 +6 1007.2 949.7
08 20.08 Ю 10 н/о н/о +10.5 +10.5 100 +6 +6 1007.6 950.2
09 20.08 Ю 12-14
{14}
н/о н/о +11.4 +11.4 100 +7 +7 1007.8 950.5
10 20.08 Ю 11-14
{14}
н/о н/о +11.8 +11.2 96 +8 +8 1008.2 951.0
11 20.08 Ю 10 н/о н/о +12.3 +11.1 92 +9 +9 1008.7 951.5
12 20.08 Ю 11-13
{15}
н/о н/о +12.5 +11.1 91 +9 +9 1009.1 951.9
13 20.08 Ю 12-13
{15}
н/о н/о +12.8 +10.9 88 +9 +9 1009.1 952.0
14 20.08 Ю 10 н/о н/о +13.0 +10.7 86 +10 +10 1009.4 952.3
15 20.08 Ю 11-14
{16}
н/о н/о +13.0 +10.8 86 +10 +10 1009.7 952.6
16 20.08 Ю 11 н/о н/о +12.9 +10.5 85 +9 +9 1010.2 953.1
17 20.08 Ю 12 н/о н/о +13.0 +10.5 85 +9 +9 1010.2 953.1
18 20.08 Ю 10-12
{13}
н/о н/о +12.1 +10.5 90 +8 +8 1011.0 953.7 +10.2 +13.3
19 20.08 Ю 10 н/о н/о +11.5 +10.3 92 +8 +8 1011.3 953.9
20 20.08 Ю 13 н/о н/о +10.8 +10.1 95 +6 +6 1011.4 953.8
21 20.08 Ю 13-15
{15}
н/о н/о +10.4 +10.2 99 +5 +5 1011.5 953.9
22 20.08 Ю 12 н/о н/о +10.3 +10.2 99 +5 +5 1011.8 954.1
23 20.08 Ю 12 н/о н/о +10.4 +10.4 100 +5 +5 1011.7 954.0
00 21.08 Ю 12-13
{14}
н/о н/о +10.5 +10.5 100 +6 +6 1012.2 954.5
01 21.08 Ю 11 н/о н/о +10.5 +10.5 100 +6 +6 1012.3 954.6
02 21.08 Ю 11-11
{13}
н/о н/о +10.7 +10.7 100 +6 +6 1012.6 954.9
03 21.08 Ю 8-10
{11}
н/о н/о +10.4 +10.4 100 +6 +6 1013.1 955.3
04 21.08 Ю 8-8
{9}
н/о н/о +10.3 +10.3 100 +6 +6 1013.3 955.5
05 21.08 ЮВ 4 н/о н/о +10.3 +10.3 100 +7 +7 1013.8 956.0
06 21.08 Ю 8-8
{8}
н/о н/о +10.5 +10.5 100 +6 +6 1013.8 956.0 +10.3 +12.1
07 21.08 Ю 8 н/о н/о +10.6 +10.6 100 +7 +7 1013.8 956.0
08 21.08 Ю 9-10
{11}
н/о н/о +10.5 +10.5 100 +6 +6 1014.0 956.2
09 21.08 Ю 8-9
{10}
н/о н/о +11.0 +11.0 100 +7 +7 1014.3 956.6
10 21.08 Ю 7 н/о н/о +11.2 +11.2 100 +8 +8 1014.6 956.9
11 21.08 Ю 7 н/о н/о +11.4 +11.4 100 +8 +8 1014.7 957.0
12 21.08 Ю 6-7
{9}
н/о н/о +12.6 +11.6 94 +10 +10 1014.4 957.0
13 21.08 Ю 6 н/о н/о +13.1 +11.2 88 +11 +11 1014.4 957.1
14 21.08 Ю 6-9
{9}
н/о н/о +14.0 +11.4 84 +12 +12 1014.2 957.1
15 21.08 Ю 8-10
{10}
н/о н/о +14.1 +11.1 82 +12 +12 1014.1 957.0
16 21.08 Ю 8 н/о н/о +13.6 +11.4 87 +11 +11 1014.2 957.1
17 21.08 Ю 9 н/о н/о +13.4 +11.3 87 +10 +10 1014.1 956.8
18 21.08 Ю 11-12
{12}
н/о н/о +12.4 +11.2 92 +9 +9 1014.1 956.6 +10.4 +14.5
19 21.08 Ю 11 н/о н/о +11.6 +11.1 97 +7 +7 1014.0 956.4
20 21.08 Ю 11 н/о н/о +11.0 +11.0 100 +7 +7 1014.4 956.7
21 21.08 ЮЗ 9-12
{12}
н/о н/о +10.4 +10.4 100 +6 +6 1014.6 956.7
22 21.08 ЮЗ 9 н/о н/о +10.3 +10.3 100 +6 +6 1014.6 956.7
23 21.08 Ю 9-10
{10}
н/о н/о +10.2 +10.2 100 +6 +6 1014.5 956.6
00 22.08 ЮЗ 7-8
{10}
н/о н/о +9.9 +9.9 100 +6 +6 1014.4 956.5
01 22.08 Ю 6-7
{8}
н/о н/о +9.6 +9.6 100 +6 +6 1014.3 956.3
02 22.08 ЮЗ 6 н/о н/о +9.3 +9.3 100 +5 +5 1014.3 956.3

 

Местоположение метеостанции Пюхя (Финляндия): широта 67.02 долгота 27.22 высота над уровнем моря 491 м.

В архиве по умолчанию представлена погода в Пюхе за последнюю неделю. Архивные данные за месяц целиком и за предыдущие месяцы, начиная с января 2011 года, Вы можете получить, выбрав интересующий диапазон дат из раскрывающегося списка и нажав кнопку "Ввод!".


*Определитесь, кто Вы:
робот инопланетянин человек

Внимание! Время в таблицах - всемирное. Для получения местного времени необходимо прибавить поправку, которая равна 1 ч.

Смотрите также архив погоды в соседних городах и на ближайших метеорологических станциях:

Погода на Аэродроме Кемиярви (Финляндия) (33 км)
Погода в Соданкюля (Финляндия) (47 км)
Погода в Савукоски (Финляндия) (51 км)
Погода в Салле (Финляндия) (67 км)
Погода в Рованиеми Апукка (Финляндия) (72 км)
Погода в Рованиеми аэропорту (Финляндия) (80 км)
Погода в Салла Наруска (Финляндия) (86 км)
Погода в Рованиеми (Финляндия) (88 км)
Погода в Соданкила Локка (Финляндия) (92 км)
Погода в Куусамо Киутаконгас (Финляндия) (117 км)

Пояснения к столбцам:

Ветер - указаны скорость ветра в м/с - средняя за 10 мин, порывы в срок и между сроками (в фигурных скобках) и направление, откуда дует ветер: С - северный, СВ - северо-восточный, В - восточный, ЮВ - юго-восточный, Ю - южный, ЮЗ - юго-западный, З - западный, СЗ - северо-западный.
Видимость - горизонтальная дальность видимости в метрах или километрах. При видимости от 1 до 10 км при отсутствии осадков обычно наблюдается дымка, при ухудшении видимости до 1 км и менее - туман. В сухую погоду видимость может ухудшаться дымом, пылью или мглою.
Явления - указаны атмосферные явления, наблюдавшиеся в срок или в последний час перед сроком; фигурными скобками обозначены явления, наблюдавшиеся между сроками (за 1-3 часа до срока); квадратными скобками обозначены град или гололедные отложения с указанием их диаметра в мм.
Облачность - указаны через наклонную черту общая и нижняя облачность в баллах и высота нижней границы облаков в метрах; квадратными скобками обозначены формы облаков: Ci - перистые, Cs - перисто-слоистые, Cc - перисто-кучевые, Ac - высококучевые, As - высокослоистые, Sc - слоисто-кучевые, Ns - слоисто-дождевые, Cu - кучевые, Cb - кучево-дождевые. Подробнее классификацию облаков см. в Атласе облаков (PDF).
T - Температура воздуха - температура, измеренная на высоте 2 м над землей.
Td - Температура точки росы - температура, при понижении до которой содержащийся в воздухе водяной пар достигнет насыщения.
f - Относительная влажность воздуха - влажноcть воздуха, измеренная на высоте 2 м над землей.
Te - Эффективная температура - температура, которую ощущает одетый по сезону человек в тени. Характеристика душности погоды. При расчете учитывается влияние влажности воздуха и скорости ветра на теплоощущения человека.
Tes - Эффективная температура на солнце - температура, которую ощущает человек, с поправкой на солнечный нагрев. Характеристика знойности погоды. Зависит от высоты солнца над горизонтом, облачности и скорости ветра. Ночью, в пасмурную погоду, а также при ветре 12 м/с и более поправка равна нулю.
P - Атмосферное давление - приведенное к уровню моря атмосферное давление.
Po - Атмосферное давление - измеренное на уровне метеостанции атмосферное давление.
Tmin - Минимальная температура - минимум температуры воздуха на высоте 2 м над землей.
Tmax - Максимальная температура - максимум температуры воздуха на высоте 2 м над землей.
R - Количество осадков - Количество выпавших осадков за период времени, мм. При наведении курсора мыши на число - период времени, за который выпало указанное количество осадков.
R24 - Количество осадков - Количество выпавших осадков за 24 часа, мм.
S - Снежный покров - Высота снежного покрова, см. При наведении курсора мыши на число - состояние снежного покрова и степень покрытия местности в баллах.